This is the latest recevied weather packets stored in our database for station/object N5JXS. If no packets are shown the sender has not sent any weather packets the latest 10 day(s).
| Time | Temp. | Humidity | Pressure | Rain* | Wind** | Luminosity | Snow |
|---|---|---|---|---|---|---|---|
| 1788520088 | 17.78° C | 34% | 1023.6 hPa | 0 mm | - | 0 W/m² | - |
| 1788519786 | 17.78° C | 34% | 1023.5 hPa | 0 mm | - | 0 W/m² | - |
| 1788519482 | 17.78° C | 34% | 1023.5 hPa | 0 mm | - | 0 W/m² | - |
| 1788519176 | 18.33° C | 34% | 1023.5 hPa | 0 mm | - | 0 W/m² | - |
| 1788518871 | 18.33° C | 34% | 1023.5 hPa | 0 mm | - | 0 W/m² | - |
| 1788518567 | 18.89° C | 33% | 1023.4 hPa | 0 mm | - | 0 W/m² | - |
| 1788518264 | 18.89° C | 32% | 1023.4 hPa | 0 mm | - | 0 W/m² | - |
| 1788517958 | 19.44° C | 30% | 1023.4 hPa | 0 mm | - | 0 W/m² | - |
| 1788517654 | 20° C | 30% | 1023.5 hPa | 0 mm | - | 0 W/m² | - |
| 1788517349 | 19.44° C | 30% | 1023.2 hPa | 0 mm | - | 0 W/m² | - |
| 1788517046 | 18.89° C | 31% | 1023.1 hPa | 0 mm | - | 0 W/m² | - |
| 1788516741 | 17.22° C | 33% | 1022.9 hPa | 0 mm | - | 0 W/m² | - |
| 1788516437 | 17.22° C | 36% | 1023.1 hPa | 0 mm | - | 0 W/m² | - |
| 1788516133 | 17.78° C | 36% | 1023.1 hPa | 0 mm | - | 0 W/m² | - |
| 1788515832 | 17.78° C | 35% | 1022.7 hPa | 0 mm | - | 0 W/m² | - |
| 1788515527 | 17.22° C | 36% | 1022.9 hPa | 0 mm | - | 0 W/m² | - |
| 1788515222 | 16.67° C | 38% | 1022.6 hPa | 0 mm | - | 0 W/m² | - |
| 1788514916 | 16.67° C | 38% | 1022.7 hPa | 0 mm | - | 0 W/m² | - |
| 1788514614 | 16.67° C | 38% | 1022.9 hPa | 0 mm | - | 0 W/m² | - |
| 1788514313 | 17.22° C | 38% | 1022.9 hPa | 0 mm | - | 0 W/m² | - |
| 1788514009 | 17.22° C | 39% | 1022.5 hPa | 0 mm | - | 0 W/m² | - |
| 1788513705 | 17.22° C | 39% | 1022.5 hPa | 0 mm | - | 0 W/m² | - |
| 1788513401 | 17.22° C | 41% | 1022.6 hPa | 0 mm | - | 0 W/m² | - |
| 1788513101 | 17.22° C | 41% | 1022.5 hPa | 0 mm | - | 0 W/m² | - |
| 1788512796 | 17.22° C | 40% | 1022.4 hPa | 0 mm | - | 0 W/m² | - |
* Rain latest hour (hover to see other rain measurements)
** Current wind speed in m/s (hover to see current wind gust speed)